Hollywood, FL

7:48 AM EDT on June 28, 2017 (GMT -0400)
North Perry

Weather History for KHWO - October, 2012

Change the Weather History Date:

Friday, October 19, 2012

  Actual Average (KFLL) Record (KFLL)
Temperature  
Mean Temperature 80 °F -  
Max Temperature 84 °F 84 °F 92 °F (1989)
Min Temperature 75 °F 70 °F 52 °F (1927)
Cooling Degree Days 14    
Growing Degree Days 30 (Base 50)    
Moisture  
Dew Point 74 °F    
Average Humidity 86    
Maximum Humidity 100    
Minimum Humidity 69    
Precipitation  
Precipitation 0.24 in - - ()
Sea Level Pressure  
Sea Level Pressure 29.89 in    
Wind  
Wind Speed 2 mph (South)    
Max Wind Speed 18 mph    
Max Gust Speed 26 mph    
Visibility 7 miles    
Events Rain    
Averages and records for this station are not official NWS values.
T = Trace of Precipitation, MM = Missing Value Source: NWS Daily Summary

Daily Weather History Graph

Daily Weather History Graph

Search for Another Location

Airport or City:

Trip Planner

Search our weather history database for the weather conditions in past years. The results will help you decide how hot, cold, wet, or windy it might be!

Date:

Astronomy

Oct. 19, 2012 Rise Set
Actual Time 7:22 AM EDT 6:49 PM EDT
Civil Twilight 6:58 AM EDT 7:12 PM EDT
Nautical Twilight 6:31 AM EDT 7:39 PM EDT
Astronomical Twilight 6:05 AM EDT 8:06 PM EDT
Moon 11:44 AM EDT (10/19) 10:44 PM EDT (10/19)
Length of Visible Light 12h 13m
Length of Day
11h 26m
Waxing Crescent, 23% of the Moon is Illuminated
Oct 19
Waxing Crescent
Oct 21
First Quarter
Oct 29
Full
Nov 6
Last Quarter
Nov 13
New

Hourly Weather History & Observations

Time (EDT) Temp. Heat Index Dew Point Humidity Pressure Visibility Wind Dir Wind Speed Gust Speed Precip Events Conditions
12:53 AM 78.1 °F - 75.0 °F 90% 29.90 in 9.0 mi Calm Calm - N/A   Clear
1:53 AM 77.0 °F - 75.0 °F 94% 29.88 in 8.0 mi Calm Calm - N/A   Clear
2:53 AM 75.9 °F - 73.9 °F 94% 29.87 in 6.0 mi Calm Calm - N/A   Clear
3:53 AM 75.0 °F - 73.0 °F 94% 29.87 in 7.0 mi Calm Calm - N/A   Clear
4:53 AM 75.9 °F - 75.0 °F 97% 29.87 in 7.0 mi Calm Calm - N/A   Clear
5:53 AM 75.0 °F - 73.9 °F 96% 29.87 in 6.0 mi Calm Calm - N/A   Clear
6:53 AM 75.9 °F - 73.9 °F 94% 29.87 in 6.0 mi Calm Calm - N/A   Partly Cloudy
7:37 AM 75.2 °F - 73.4 °F 94% 29.89 in 4.0 mi Calm Calm - N/A   Scattered Clouds
7:53 AM 75.9 °F - 75.0 °F 97% 29.89 in 4.0 mi Calm Calm - N/A   Mostly Cloudy
8:25 AM 77.0 °F - 77.0 °F 100% 29.90 in 4.0 mi Calm Calm - N/A   Scattered Clouds
8:36 AM 78.8 °F - 77.0 °F 94% 29.90 in 3.0 mi Calm Calm - N/A   Mostly Cloudy
8:40 AM 78.8 °F - 77.0 °F 94% 29.90 in 4.0 mi Calm Calm - N/A   Scattered Clouds
8:53 AM 80.1 °F 85.8 °F 77.0 °F 90% 29.90 in 4.0 mi North 4.6 mph - N/A   Scattered Clouds
9:53 AM 82.9 °F 91.8 °F 77.0 °F 82% 29.91 in 8.0 mi Calm Calm - N/A   Scattered Clouds
10:22 AM 84.2 °F 92.3 °F 75.2 °F 74% 29.91 in 10.0 mi Calm Calm - N/A   Mostly Cloudy
10:53 AM 82.9 °F 89.4 °F 73.9 °F 74% 29.91 in 10.0 mi NNW 4.6 mph - N/A   Mostly Cloudy
11:22 AM 78.8 °F - 71.6 °F 78% 29.92 in 9.0 mi West 15.0 mph 23.0 mph 0.00 in Rain Light Rain
11:29 AM 75.2 °F - 69.8 °F 83% 29.92 in 1.2 mi West 18.4 mph 26.5 mph 0.07 in Rain Light Rain
11:32 AM 75.2 °F - 69.8 °F 83% 29.93 in 0.8 mi West 9.2 mph 26.5 mph 0.12 in Rain Heavy Rain
11:45 AM 75.2 °F - 71.6 °F 89% 29.91 in 0.8 mi Calm Calm - 0.24 in Rain Rain
11:49 AM 75.2 °F - 73.4 °F 94% 29.91 in 1.2 mi Calm Calm - 0.24 in Rain Light Rain
11:53 AM 75.9 °F - 73.0 °F 91% 29.91 in 3.0 mi West 3.5 mph - 0.24 in Rain Light Rain
12:53 PM 82.9 °F 90.8 °F 75.9 °F 79% 29.91 in 9.0 mi East 8.1 mph - 0.00 in   Mostly Cloudy
1:53 PM 84.0 °F 91.9 °F 75.0 °F 74% 29.88 in 10.0 mi East 6.9 mph - N/A   Scattered Clouds
2:53 PM 84.0 °F 90.2 °F 73.0 °F 69% 29.86 in 10.0 mi SSE 10.4 mph - N/A   Scattered Clouds
3:53 PM 79.0 °F - 70.0 °F 74% 29.86 in 10.0 mi Calm Calm - N/A   Scattered Clouds
4:53 PM 82.0 °F 86.3 °F 71.1 °F 69% 29.85 in 10.0 mi South 5.8 mph - N/A   Partly Cloudy
5:53 PM 82.0 °F 86.7 °F 72.0 °F 71% 29.83 in 10.0 mi SSE 6.9 mph - N/A   Clear
6:53 PM 80.1 °F 83.8 °F 72.0 °F 76% 29.86 in 10.0 mi SSE 3.5 mph - N/A   Clear
7:53 PM 79.0 °F - 73.9 °F 84% 29.87 in 10.0 mi SSE 4.6 mph - N/A   Clear
8:53 PM 79.0 °F - 73.9 °F 84% 29.90 in 10.0 mi SE 5.8 mph - N/A   Mostly Cloudy
9:53 PM 79.0 °F - 73.9 °F 84% 29.91 in 9.0 mi Calm Calm - N/A   Clear
10:53 PM 78.1 °F - 73.9 °F 87% 29.91 in 10.0 mi South 3.5 mph - N/A   Clear
11:53 PM 77.0 °F - 73.9 °F 90% 29.91 in 10.0 mi Calm Calm - N/A   Clear